Content
SEND FEEDBACK

Daily
Averages
Monthly
Summary
United States of America

FAIRCHILD, WISCONSIN


Home > North America > United States > Wisconsin
Elevation: 1113 feet     Latitude: 44 35N     Longitude: 090 58W

WEATHER
 
SELECT A DAY
Number of Records: 88,457;   Date Range: 11/18/10 - 9/14/14
 
SHARE

PRINT THIS DATA

[ ← Previous Day ]
WEATHER ALMANAC - FEBRUARY 16, 2013
[ Next Day → ]
[ °C ]   °F
Weather ElementAverageHighLow
Temperature8 °F17.6 °F (1:35 pm)-11.2 °F (11:15 pm)
Dewpoint-1.6 °F3.2 °F (12:35 am)-16.6 °F (11:15 pm)
Humidity66.7 %85 % (7:15 am)45 % (1:55 pm)
Barometer30.16 in30.20 in (12:35 am)30.14 in (2:15 pm)
Wind Speed3.8 mph9.2 mph (1:35 pm)
Weather ElementAverage
Visibility10 mi
Wind DirectionSSW (204 °)

Weather ElementTotal
Precipitation---
Heating Degree Days61.8 (Base 65)
Averaged from 60 records on February 16, 2013
WEATHER CONDITIONS BREAKOUT
WIND DIRECTION BREAKOUT
WEATHER BY HOUR - FEBRUARY 16, 2013
[ °C ]   °F
Local TimeTemperatureDewpointHumidityBarometerVisibilityWind DirectionWind SpeedGust SpeedPrecipitationEventsConditions
12:35 AM12.2 °F3.2 °F67 %30.20 in10.0 miWest (270°)3.5 mphOvercast
1:15 AM12.2 °F3.2 °F67 %30.19 in10.0 miWest (270°)5.8 mphOvercast
1:35 AM12.2 °F3.2 °F67 %30.18 in10.0 miWest (270°)6.9 mphOvercast
1:55 AM12.2 °F3.2 °F67 %30.18 in10.0 miWNW (290°)6.9 mphOvercast
2:15 AM12.2 °F3.2 °F67 %30.18 in10.0 miWest (280°)5.8 mphOvercast
2:35 AM12.2 °F3.2 °F67 %30.17 in10.0 miWest (280°)5.8 mphOvercast
2:55 AM12.2 °F3.2 °F67 %30.17 in10.0 miWest (280°)6.9 mphOvercast
3:15 AM12.2 °F3.2 °F67 %30.17 in10.0 miWNW (290°)6.9 mphOvercast
3:35 AM12.2 °F3.2 °F67 %30.16 in10.0 miWest (280°)5.8 mphOvercast
3:55 AM12.2 °F3.2 °F67 %30.16 in10.0 miWest (280°)4.6 mphOvercast
4:15 AM10.4 °F3.2 °F73 %30.16 in10.0 miWNW (290°)4.6 mphOvercast
4:35 AM10.4 °F3.2 °F73 %30.16 in10.0 miWNW (300°)3.5 mphOvercast
4:55 AM10.4 °F3.2 °F73 %30.16 in10.0 miNW (320°)5.8 mphOvercast
5:15 AM10.4 °F3.2 °F73 %30.16 in10.0 miNW (310°)4.6 mphOvercast
5:35 AM10.4 °F3.2 °F73 %30.16 in10.0 miNW (310°)4.6 mphOvercast
5:55 AM10.4 °F3.2 °F73 %30.16 in10.0 miNW (310°)5.8 mphOvercast
6:15 AM8.6 °F3.2 °F79 %30.16 in10.0 miWNW (290°)3.5 mphOvercast
6:35 AM8.6 °F1.4 °F73 %30.16 in10.0 miNW (320°)3.5 mphScattered Clouds
6:55 AM5.0 °F-0.4 °F78 %30.17 in10.0 miWNW (300°)3.5 mphClear
7:15 AM3.2 °F-0.4 °F85 %30.17 in10.0 miWNW (290°)4.6 mphClear
7:35 AM3.2 °F-0.4 °F85 %30.18 in10.0 miWNW (300°)3.5 mphClear
7:55 AM3.2 °F-0.4 °F85 %30.18 in10.0 miWNW (290°)3.5 mphClear
8:15 AM5.0 °F-0.4 °F78 %30.18 in10.0 miWNW (300°)3.5 mphClear
8:35 AM6.8 °F-0.4 °F72 %30.19 in10.0 miWNW (300°)4.6 mphClear
8:55 AM8.6 °F-0.4 °F67 %30.19 in10.0 miWest (280°)5.8 mphClear
9:15 AM8.6 °F1.4 °F73 %30.19 in10.0 miWest (260°)3.5 mphClear
9:35 AM10.4 °F1.4 °F67 %30.18 in10.0 miCalmClear
9:55 AM12.2 °F1.4 °F62 %30.18 in10.0 miCalmMostly Cloudy
11:55 AM14.0 °F-0.4 °F53 %30.18 in10.0 miWNW (290°)3.5 mphOvercast
12:35 PM15.8 °F-0.4 °F49 %30.16 in10.0 miNNW (340°)5.8 mphScattered Clouds
1:15 PM15.8 °F-0.4 °F49 %30.15 in10.0 miWest (280°)6.9 mphScattered Clouds
1:35 PM17.6 °F1.4 °F49 %30.15 in10.0 miWest (280°)9.2 mphScattered Clouds
1:55 PM17.6 °F-0.4 °F45 %30.15 in10.0 miNNW (340°)5.8 mphMostly Cloudy
2:15 PM17.6 °F-0.4 °F45 %30.14 in10.0 miWNW (290°)5.8 mphScattered Clouds
2:35 PM17.6 °F-0.4 °F45 %30.14 in10.0 miNNW (330°)9.2 mphScattered Clouds
2:55 PM17.6 °F-0.4 °F45 %30.14 in10.0 miWNW (300°)8.1 mphScattered Clouds
3:15 PM17.6 °F-0.4 °F45 %30.14 in10.0 miNW (310°)9.2 mphClear
3:35 PM17.6 °F-0.4 °F45 %30.14 in10.0 miWNW (290°)3.5 mphClear
3:55 PM17.6 °F-0.4 °F45 %30.14 in10.0 miWest (270°)8.1 mphClear
4:15 PM17.6 °F-0.4 °F45 %30.15 in10.0 miNorth (10°)4.6 mphClear
4:35 PM17.6 °F-0.4 °F45 %30.15 in10.0 miWNW (300°)5.8 mphClear
5:15 PM15.8 °F-0.4 °F49 %30.16 in10.0 miNW (310°)3.5 mphClear
5:35 PM15.8 °F-0.4 °F49 %30.16 in10.0 miNW (320°)4.6 mphClear
5:55 PM14.0 °F-0.4 °F53 %30.16 in10.0 miNNW (330°)3.5 mphClear
6:15 PM10.4 °F-4.0 °F52 %30.16 in10.0 miCalmClear
6:35 PM5.0 °F-2.2 °F72 %30.17 in10.0 miCalmClear
6:55 PM3.2 °F-4.0 °F72 %30.17 in10.0 miCalmClear
7:15 PM1.4 °F-5.8 °F72 %30.17 in10.0 miEast (90°)3.5 mphClear
7:35 PM1.4 °F-4.0 °F78 %30.16 in10.0 miCalmClear
8:15 PM-2.2 °F-5.8 °F85 %30.17 in10.0 miCalmClear
8:35 PM-2.2 °F-7.6 °F78 %30.16 in10.0 miCalmClear
8:55 PM-4.0 °F-7.6 °F85 %30.17 in10.0 miCalmClear
9:15 PM-5.8 °F-9.4 °F84 %30.16 in10.0 miCalmClear
9:35 PM-4.0 °F-7.6 °F85 %30.17 in10.0 miCalmClear
10:15 PM-7.6 °F-11.2 °F84 %30.16 in10.0 miCalmClear
10:35 PM-9.4 °F-14.8 °F77 %30.17 in10.0 miCalmClear
10:55 PM-9.4 °F-14.8 °F77 %30.17 in10.0 miCalmClear
11:15 PM-11.2 °F-16.6 °F77 %30.16 in10.0 miCalmClear
11:35 PM-9.4 °F-14.8 °F77 %30.16 in10.0 miCalmClear
11:55 PM-11.2 °F-16.6 °F77 %30.15 in10.0 miCalmClear
Hourly data recorded from KBCK, located miles away from Fairchild, Wisconsin







STORIES FROM OUR PARTNERS